Regional Weather Roundup
Issued by NWS State College, PA

Home | Current Version | Previous Version | Graphics & Text | Print | Product List | Glossary Off
Versions: 1 2 3 4 5 6 7 8 9 10 11 12 13 14 15 16 17 18 19 20 21 22 23 24 25 26 27 28 29 30 31 32 33 34 35 36 37 38 39 40 41 42 43 44 45 46 47 48 49 50

948
ASUS41 KCTP 031703
RWRCTP

REGIONAL WEATHER ROUNDUP
NATIONAL WEATHER SERVICE STATE COLLEGE PA
1200 PM EST SAT DEC 03 2016

Note: "fair" indicates few or no clouds below 12,000 feet with no
significant weather and/or obstructions to visibility.

* = STATION THAT DOES NOT REPORT PRECIPITATION /E.G. RAIN...SNOW...ETC/
    THUNDER OR FOG.

PAZ002>004-007>009-013>016-020>023-029>032-031800-
WESTERN PENNSYLVANIA

CITY           SKY/WX    TMP DP  RH WIND       PRES   REMARKS
ERIE           CLOUDY    41  33  73 W13       30.24F
MEADVILLE      MIX PCPN  36  32  85 W8        30.22F
FRANKLIN*        N/A     36  30  80 W10       30.24F
NEW CASTLE     CLOUDY    37  31  78 W8        30.27F
BEAVER COUNTY  CLOUDY    36  30  80 W5        30.27F
BUTLER*        CLOUDY    36  28  75 W5        30.28F
PITTSBURGH INT CLOUDY    38  31  76 NW8       30.27F
PITTSBURGH     CLOUDY    36  26  67 NW7       30.26F
INDIANA*       CLOUDY    37  32  81 W9G17     30.25F
LATROBE        CLOUDY    36  30  80 W7        30.27F
WASHINGTON CO* CLOUDY    36  27  69 W3        30.29F
$$

PAZ004>006-010>012-017>019-024>028-033>037-041-042-045-046-049>053-031800-
CENTRAL PENNSYLVANIA

CITY           SKY/WX    TMP DP  RH WIND       PRES   REMARKS
BRADFORD       MIX PCPN  34  32  92 NW13      30.14S
DUBOIS         CLOUDY    35  31  85 W12       30.17F
CLEARFIELD     CLOUDY    37  33  85 W12G21    30.18F
JOHNSTOWN      CLOUDY    32  29  88 W10G17    30.17F
ALTOONA        CLOUDY    38  30  73 W12       30.19F
STATE COLLEGE  CLOUDY    37  32  81 W14G21    30.17F
WILLIAMSPORT   CLOUDY    45  29  53 NW18G26   30.13R
SELINSGROVE    LGT RAIN  43  36  76 NW9       30.16R
FT INDIANTOWN  CLOUDY    46  31  57 W16G22    30.13F
CAPITAL CITY   CLOUDY    48  30  49 NW17G24   30.16F
HARRISBURG     CLOUDY    46  32  58 NW17      30.15F
YORK           CLOUDY    45  31  58 W16G23    30.16F
$$

PAZ038>040-043-044-047-048-054-055-060>062-067>071-031800-
EASTERN PENNSYLVANIA

CITY           SKY/WX    TMP DP  RH WIND       PRES   REMARKS
SCRANTON       CLOUDY    41  30  65 NW9       30.08S
MOUNT POCONO   CLOUDY    35  26  69 NW17G35   30.01R
ALLENTOWN      PTSUNNY   47  27  45 NW15G24   30.09F
QUAKERTOWN*    PTSUNNY   45  28  53 NW12      30.10S
READING        PTSUNNY   49  30  48 NW13G23   30.11F
LANCASTER      CLOUDY    47  34  60 W17       30.14F
COATESVILLE    CLOUDY    45  32  61 NW14      30.13F
POTTSTOWN      MOSUNNY   45  28  51 NW13G24   30.12S
BLUE BELL      CLOUDY    45  30  57 NW9       30.10S
DOYLESTOWN     CLOUDY    48  29  47 NW14G24   30.08F
WILLOW GROVE   NOT AVBL
NORTH PHILA    PTSUNNY   49  30  48 W16G24    30.12S
PHILADELPHIA   PTSUNNY   49  28  44 W16       30.12F
$$




USA.gov is the U.S. government's official web portal to all federal, state and local government web resources and services.